Flag for Austria Weather past 2 weeks in Amstetten, Lower Austria, Austria

Now
50 °F

Partly sunny.


Feels Like: 44 °F
Forecast: 38 / 43 °F
Wind: 17 mph from West

Location: Linz / Hoersching-Flughafen

Current Time: Mar 31, 2015 at 8:18:54 PM

Latest Report: Mar 31, 2015 at 7:00 PM


Visibility: 31 mi

Pressure: 29.60 "Hg

Humidity: 66%

Dew point: 39 °F

Location of AmstettenLocation

Historic Weather in Amstetten — Graph

°F

Amstetten temperature yesterday

Maximum temperature yesterday: 51 °F (at 2:00 AM)
Minimum temperature yesterday: 40 °F (at 7:00 PM)
Average temperature yesterday: 45 °F

Past Weeks' High & Low Weather Summary

 TemperatureHumidityPressure
High62 °F (Mar 31, 1:00 PM)100% (Mar 24, 7:00 AM)30.35 "Hg (Mar 24, 7:00 AM)
Low28 °F (Mar 21, 7:00 AM)22% (Mar 19, 3:00 PM)29.41 "Hg (Mar 31, 1:00 PM)
Average45 °F68%30.01 "Hg
* Reported Mar 16 6:00 PM — Mar 31 7:00 PM, Amstetten, Weather by CustomWeather, © 2015

Note: Actual official high and low records may vary slightly from our data, if they occured in-between our weather recording intervals... More about our weather records

Advertising

Amstetten weather history for previous 24 hours

 ConditionsComfort  
Time TempWeatherWind HumidityBarometerVisibility
7:00 PM
Tue, Mar 31
50 °FPartly sunny.17 mph66%29.60 "Hg31 mi
6:00 PM50 °FRain showers. Overcast.20 mph78%29.58 "Hg11 mi
5:00 PM51 °FSprinkles. Overcast.21 mph79%29.54 "Hg4 mi
4:00 PM56 °FRain showers. Overcast.16 mph65%29.50 "Hg3 mi
3:00 PM58 °FRain showers. Overcast.21 mph55%29.47 "Hg25 mi
2:00 PM59 °FOvercast.21 mph57%29.44 "Hg9 mi
1:00 PM62 °FPartly sunny.18 mph51%29.41 "Hg19 mi
12:00 PM59 °FOvercast.13 mph56%29.44 "Hg31 mi
11:00 AM45 °FOvercast.N/A91%29.50 "Hg9 mi
10:00 AM42 °FLow clouds.N/A95%29.50 "Hg6 mi
9:00 AM39 °FLow clouds.N/A96%29.59 "Hg4 mi
8:00 AM39 °FLight rain. Low clouds.N/A96%29.63 "Hg4 mi
7:00 AM39 °FHeavy rain. Low clouds.N/A95%29.69 "Hg3 mi
6:00 AM40 °FLight rain. Low clouds.3 mph90%29.77 "Hg7 mi
5:00 AM41 °FLight rain. Overcast.N/A76%29.83 "Hg9 mi
4:00 AM40 °FOvercast.3 mph76%29.88 "Hg25 mi
3:00 AM40 °FOvercast.N/A80%29.91 "Hg25 mi
2:00 AM40 °FOvercast.3 mph75%29.93 "Hg31 mi
1:00 AM40 °FOvercast.7 mph74%29.95 "Hg31 mi
12:00 AM41 °FOvercast.8 mph74%29.95 "Hg31 mi
11:00 PM
Mon, Mar 30
41 °FOvercast.7 mph76%29.93 "Hg31 mi
10:00 PM40 °FOvercast.6 mph82%29.91 "Hg28 mi
9:00 PM41 °FOvercast.9 mph75%29.88 "Hg31 mi
8:00 PM43 °FOvercast.12 mph64%29.81 "Hg31 mi
Weather by CustomWeather, © 2015

See weather overviewHow to use our weather pages